| time (UTC) | temp F | wind direction | speed MPH | gust MPH | rain 1hr in | rain 24hr in | rain mn in | humidity % | barometer mb |
| 20260505101658 | 46 | 232 | 5.0 | 10.0 | 0.00 | 0.00 | 0.00 | 39 | 913.5 |
| 20260505100657 | 46 | 221 | 5.0 | 7.0 | 0.00 | 0.00 | 0.00 | 37 | 913.6 |
| 20260505095656 | 47 | 224 | 4.0 | 9.0 | 0.00 | 0.00 | 0.00 | 36 | 913.5 |
| 20260505094656 | 48 | 229 | 4.0 | 7.0 | 0.00 | 0.00 | 0.00 | 37 | 913.4 |
| 20260505093655 | 48 | 243 | 3.0 | 6.0 | 0.00 | 0.00 | 0.00 | 39 | 913.3 |
| 20260505092655 | 48 | 245 | 3.0 | 6.0 | 0.00 | 0.00 | 0.00 | 42 | 913.2 |
| 20260505091654 | 49 | 253 | 4.0 | 7.0 | 0.00 | 0.00 | 0.00 | 39 | 913.2 |
| 20260505090654 | 49 | 233 | 3.0 | 6.0 | 0.00 | 0.00 | 0.00 | 39 | 913.1 |
| 20260505085653 | 49 | 228 | 4.0 | 8.0 | 0.00 | 0.00 | 0.00 | 42 | 913.1 |
| 20260505084653 | 49 | 226 | 5.0 | 9.0 | 0.00 | 0.00 | 0.00 | 39 | 913.2 |
| 20260505083653 | 50 | 191 | 6.0 | 11.0 | 0.00 | 0.00 | 0.00 | 37 | 913.2 |
| 20260505082653 | 50 | 228 | 6.0 | 9.0 | 0.00 | 0.00 | 0.00 | 38 | 913.2 |
| 20260505081652 | 50 | 217 | 6.0 | 10.0 | 0.00 | 0.00 | 0.00 | 36 | 913.1 |
| 20260505080651 | 50 | 211 | 6.0 | 9.0 | 0.00 | 0.00 | 0.00 | 35 | 913.1 |
| 20260505075651 | 50 | 231 | 5.0 | 9.0 | 0.00 | 0.00 | 0.00 | 40 | 913.1 |
| 20260505074650 | 51 | 208 | 5.0 | 10.0 | 0.00 | 0.00 | 0.00 | 38 | 913.2 |
| 20260505073650 | 51 | 252 | 4.0 | 9.0 | 0.00 | 0.00 | 0.00 | 41 | 913.1 |
| 20260505072650 | 51 | 242 | 6.0 | 10.0 | 0.00 | 0.00 | 0.00 | 46 | 913.1 |
| 20260505071650 | 51 | 214 | 5.0 | 9.0 | 0.00 | 0.00 | 0.00 | 44 | 913.0 |
| 20260505070648 | 52 | 205 | 5.0 | 9.0 | 0.00 | 0.00 | 0.00 | 47 | 913.0 |
| 20260505065648 | 52 | 200 | 4.0 | 9.0 | 0.00 | 0.00 | 0.00 | 45 | 912.9 |
| 20260505064647 | 51 | 204 | 5.0 | 11.0 | 0.00 | 0.00 | 0.00 | 48 | 912.9 |
| 20260505063647 | 52 | 198 | 6.0 | 11.0 | 0.00 | 0.00 | 0.00 | 43 | 912.9 |
| 20260505062647 | 53 | 187 | 5.0 | 10.0 | 0.00 | 0.00 | 0.00 | 49 | 912.8 |
| 20260505061647 | 54 | 201 | 6.0 | 11.0 | 0.00 | 0.00 | 0.00 | 46 | 912.7 |
| 20260505060646 | 55 | 148 | 5.0 | 15.0 | 0.00 | 0.00 | 0.00 | 47 | 912.9 |
| 20260505055645 | 55 | 207 | 7.0 | 11.0 | 0.00 | 0.00 | 0.00 | 44 | 912.5 |
| 20260505054645 | 55 | 233 | 5.0 | 9.0 | 0.00 | 0.00 | 0.00 | 49 | 912.6 |
| 20260505053644 | 55 | 197 | 6.0 | 12.0 | 0.00 | 0.00 | 0.00 | 52 | 912.7 |
| 20260505052644 | 55 | 235 | 4.0 | 9.0 | 0.00 | 0.00 | 0.00 | 54 | 912.6 |
| 20260505051643 | 55 | 270 | 5.0 | 10.0 | 0.00 | 0.00 | 0.00 | 50 | 912.5 |
| 20260505050643 | 55 | 177 | 5.0 | 8.0 | 0.00 | 0.00 | 0.00 | 51 | 912.6 |
| 20260505041639 | 56 | 200 | 3.0 | 8.0 | 0.00 | 0.00 | 0.00 | 44 | 912.2 |
| 20260505040638 | 57 | 197 | 3.0 | 9.0 | 0.00 | 0.00 | 0.00 | 44 | 912.3 |
| 20260505035638 | 56 | 221 | 3.0 | 7.0 | 0.00 | 0.00 | 0.00 | 43 | 912.3 |
| 20260505034637 | 57 | 193 | 3.0 | 9.0 | 0.00 | 0.00 | 0.00 | 43 | 912.3 |
| 20260505033637 | 57 | 208 | 2.0 | 6.0 | 0.00 | 0.00 | 0.00 | 43 | 912.1 |
| 20260505032636 | 57 | 194 | 3.0 | 7.0 | 0.00 | 0.00 | 0.00 | 45 | 912.1 |
| 20260505031636 | 57 | 139 | 2.0 | 6.0 | 0.00 | 0.00 | 0.00 | 44 | 912.2 |
| 20260505030636 | 56 | 179 | 3.0 | 6.0 | 0.00 | 0.00 | 0.00 | 40 | 912.1 |
| 20260505025635 | 58 | 219 | 3.0 | 7.0 | 0.00 | 0.00 | 0.00 | 38 | 912.0 |
| 20260505024635 | 57 | 108 | 2.0 | 8.0 | 0.00 | 0.00 | 0.00 | 44 | 911.9 |
| 20260505023634 | 57 | 229 | 2.0 | 6.0 | 0.00 | 0.00 | 0.00 | 43 | 911.9 |
| 20260505022634 | 57 | 240 | 3.0 | 8.0 | 0.00 | 0.00 | 0.00 | 42 | 911.8 |
| 20260505021633 | 58 | 104 | 3.0 | 8.0 | 0.00 | 0.00 | 0.00 | 42 | 911.8 |
| 20260505020633 | 58 | 273 | 2.0 | 6.0 | 0.00 | 0.00 | 0.00 | 44 | 911.6 |
| 20260505015632 | 57 | 84 | 2.0 | 6.0 | 0.00 | 0.00 | 0.00 | 46 | 911.6 |
| 20260505014632 | 56 | 195 | 1.0 | 6.0 | 0.00 | 0.00 | 0.00 | 46 | 911.4 |
| 20260505013631 | 55 | 218 | 1.0 | 7.0 | 0.00 | 0.00 | 0.00 | 49 | 911.4 |
| 20260505012631 | 56 | 232 | 2.0 | 8.0 | 0.00 | 0.00 | 0.00 | 46 | 911.1 |
| 20260505011632 | 56 | 194 | 3.0 | 7.0 | 0.00 | 0.00 | 0.00 | 45 | 910.9 |
| 20260505010630 | 55 | 198 | 1.0 | 6.0 | 0.00 | 0.00 | 0.00 | 50 | 911.0 |
| 20260505005629 | 55 | 232 | 2.0 | 7.0 | 0.00 | 0.00 | 0.00 | 47 | 910.8 |
| 20260505004629 | 55 | 198 | 1.0 | 5.0 | 0.00 | 0.00 | 0.00 | 44 | 910.8 |
| 20260505003628 | 55 | 97 | 2.0 | 6.0 | 0.00 | 0.00 | 0.00 | 47 | 910.6 |
| 20260505002628 | 55 | 207 | 3.0 | 12.0 | 0.00 | 0.00 | 0.00 | 48 | 910.5 |
| 20260505001628 | 54 | 211 | 2.0 | 7.0 | 0.00 | 0.00 | 0.00 | 49 | 910.2 |
| 20260505000627 | 53 | 204 | 2.0 | 9.0 | 0.00 | 0.00 | 0.00 | 45 | 910.0 |
| 20260504235626 | 52 | 186 | 1.0 | 3.0 | 0.00 | 0.00 | 0.00 | 53 | 910.0 |
| 20260504234626 | 52 | 207 | 2.0 | 6.0 | 0.00 | 0.00 | 0.00 | 52 | 909.9 |
| 20260504233626 | 52 | 141 | 1.0 | 6.0 | 0.00 | 0.00 | 0.00 | 51 | 909.8 |
| 20260504232626 | 52 | 195 | 1.0 | 4.0 | 0.00 | 0.00 | 0.00 | 51 | 909.7 |
| 20260504231625 | 52 | 191 | 1.0 | 4.0 | 0.00 | 0.00 | 0.00 | 51 | 909.7 |
| 20260504230624 | 51 | 97 | 1.0 | 5.0 | 0.00 | 0.00 | 0.00 | 53 | 909.5 |
| 20260504225624 | 51 | 221 | 1.0 | 6.0 | 0.00 | 0.00 | 0.00 | 54 | 909.3 |
| 20260504224623 | 51 | 136 | 2.0 | 8.0 | 0.00 | 0.00 | 0.00 | 49 | 909.2 |
| 20260504223623 | 50 | 228 | 1.0 | 4.0 | 0.00 | 0.00 | 0.00 | 54 | 909.0 |
| 20260504222623 | 49 | 136 | 1.0 | 3.0 | 0.00 | 0.00 | 0.00 | 54 | 908.7 |
| 20260504221622 | 48 | 103 | 1.0 | 4.0 | 0.00 | 0.00 | 0.00 | 55 | 908.5 |
| 20260504220622 | 47 | 186 | 0.0 | 3.0 | 0.00 | 0.00 | 0.00 | 58 | 908.4 |
| 20260504215621 | 47 | 180 | 0.0 | 1.0 | 0.00 | 0.00 | 0.00 | 57 | 908.2 |
| 20260504214621 | 46 | 205 | 1.0 | 3.0 | 0.00 | 0.00 | 0.00 | 55 | 908.1 |
| 20260504213620 | 46 | 122 | 2.0 | 5.0 | 0.00 | 0.00 | 0.00 | 55 | 908.0 |
| 20260504212620 | 46 | 117 | 2.0 | 4.0 | 0.00 | 0.00 | 0.00 | 56 | 907.8 |
| 20260504211619 | 45 | 148 | 2.0 | 6.0 | 0.00 | 0.00 | 0.00 | 56 | 907.6 |
| 20260504210619 | 45 | 207 | 2.0 | 5.0 | 0.00 | 0.00 | 0.00 | 58 | 907.4 |
| 20260504205619 | 45 | 190 | 3.0 | 7.0 | 0.00 | 0.00 | 0.00 | 59 | 907.1 |
| 20260504204618 | 44 | 204 | 4.0 | 8.0 | 0.00 | 0.00 | 0.00 | 60 | 906.7 |
| 20260504203617 | 44 | 201 | 6.0 | 13.0 | 0.00 | 0.00 | 0.00 | 59 | 906.5 |
| 20260504202617 | 44 | 191 | 6.0 | 15.0 | 0.00 | 0.00 | 0.00 | 61 | 906.2 |
| 20260504201616 | 44 | 193 | 8.0 | 17.0 | 0.00 | 0.00 | 0.00 | 62 | 906.0 |
| 20260504200616 | 43 | 207 | 7.0 | 12.0 | 0.00 | 0.00 | 0.00 | 66 | 905.7 |
| 20260504195616 | 43 | 194 | 7.0 | 15.0 | 0.00 | 0.00 | 0.00 | 71 | 905.6 |
| 20260504194615 | 42 | 136 | 6.0 | 15.0 | 0.00 | 0.00 | 0.00 | 76 | 905.2 |
| 20260504193615 | 41 | 210 | 5.0 | 9.0 | 0.00 | 0.00 | 0.00 | 79 | 904.9 |
| 20260504192614 | 42 | 169 | 3.0 | 8.0 | 0.00 | 0.00 | 0.00 | 79 | 904.7 |
| 20260504191614 | 42 | 141 | 4.0 | 8.0 | 0.00 | 0.00 | 0.00 | 79 | 904.6 |
| 20260504190613 | 42 | 120 | 4.0 | 7.0 | 0.00 | 0.00 | 0.00 | 79 | 904.4 |
| 20260504185613 | 42 | 141 | 4.0 | 9.0 | 0.00 | 0.00 | 0.00 | 79 | 904.1 |
| 20260504184613 | 42 | 131 | 4.0 | 8.0 | 0.00 | 0.00 | 0.00 | 80 | 904.0 |
| 20260504183612 | 42 | 155 | 4.0 | 5.0 | 0.00 | 0.00 | 0.00 | 80 | 903.8 |
| 20260504182612 | 42 | 110 | 6.0 | 14.0 | 0.00 | 0.00 | 0.00 | 78 | 903.6 |
| 20260504181611 | 43 | 124 | 7.0 | 13.0 | 0.00 | 0.00 | 0.00 | 78 | 903.6 |
| 20260504180611 | 44 | 108 | 7.0 | 14.0 | 0.00 | 0.00 | 0.00 | 81 | 903.2 |
| 20260504175610 | 44 | 114 | 6.0 | 18.0 | 0.00 | 0.00 | 0.00 | 82 | 903.1 |
| 20260504174610 | 45 | 127 | 5.0 | 9.0 | 0.00 | 0.00 | 0.00 | 81 | 903.0 |
| 20260504173610 | 45 | 149 | 5.0 | 8.0 | 0.00 | 0.00 | 0.00 | 81 | 902.9 |
| 20260504172610 | 45 | 138 | 5.0 | 8.0 | 0.00 | 0.00 | 0.00 | 82 | 902.7 |
| 20260504171608 | 45 | 162 | 5.0 | 7.0 | 0.00 | 0.00 | 0.00 | 81 | 902.5 |
| 20260504170608 | 45 | 173 | 4.0 | 7.0 | 0.00 | 0.00 | 0.00 | 80 | 902.6 |
| 20260504150602 | 48 | 101 | 3.0 | 10.0 | 0.00 | 0.00 | 0.00 | 56 | 901.4 |
| 20260504140600 | 49 | 349 | 3.0 | 5.0 | 0.00 | 0.00 | 0.79 | 37 | 900.5 |
| 20260504130556 | 49 | 271 | 12.0 | 20.0 | 0.00 | 0.00 | 0.79 | 32 | 898.8 |
| 20260504110550 | 49 | 269 | 16.0 | 39.0 | 0.00 | 0.00 | 0.79 | 45 | 895.9 |